| time (UTC) | temp F | wind direction | speed knots | gust knots | rain 1hr in | rain 24hr in | rain mn in | humidity % | barometer mb |
| 20260508060012 | 57 | 176 | 0.9 | 2.6 | 0.00 | 0.00 | 0.00 | 47 | 1011.1 |
| 20260508054508 | 59 | 136 | 0.9 | 3.5 | 0.00 | 0.00 | 0.00 | 45 | 1011.2 |
| 20260508053006 | 60 | 134 | 0.9 | 5.2 | 0.00 | 0.00 | 0.00 | 43 | 1011.4 |
| 20260508051504 | 61 | 165 | 0.9 | 4.3 | 0.00 | 0.00 | 0.00 | 42 | 1011.3 |
| 20260508050058 | 61 | 144 | 2.6 | 6.1 | 0.00 | 0.00 | 0.00 | 42 | 1011.6 |
| 20260508044557 | 61 | 127 | 1.7 | 5.2 | 0.00 | 0.00 | 0.00 | 41 | 1011.7 |
| 20260508043057 | 61 | 139 | 0.9 | 4.3 | 0.00 | 0.00 | 0.00 | 40 | 1011.9 |
| 20260508041557 | 61 | 156 | 0.0 | 2.6 | 0.00 | 0.00 | 0.00 | 39 | 1011.9 |
| 20260508040056 | 61 | 148 | 0.0 | 2.6 | 0.00 | 0.00 | 0.00 | 38 | 1011.8 |
| 20260508034555 | 62 | 148 | 0.0 | 2.6 | 0.00 | 0.00 | 0.00 | 37 | 1011.9 |
| 20260508033054 | 63 | 113 | 0.9 | 3.5 | 0.00 | 0.00 | 0.00 | 35 | 1011.8 |
| 20260508031553 | 63 | 143 | 0.9 | 3.5 | 0.00 | 0.00 | 0.00 | 34 | 1011.6 |
| 20260508030054 | 64 | 115 | 0.0 | 3.5 | 0.00 | 0.00 | 0.00 | 32 | 1011.3 |
| 20260508024552 | 65 | 147 | 0.0 | 0.0 | 0.00 | 0.00 | 0.00 | 31 | 1011.2 |
| 20260508023052 | 65 | 159 | 0.0 | 1.7 | 0.00 | 0.00 | 0.00 | 31 | 1011.0 |
| 20260508021554 | 66 | 175 | 0.0 | 0.0 | 0.00 | 0.00 | 0.00 | 29 | 1010.8 |
| 20260508020104 | 67 | 120 | 0.0 | 0.0 | 0.00 | 0.00 | 0.00 | 28 | 1010.8 |
| 20260508014552 | 69 | 156 | 0.0 | 0.0 | 0.00 | 0.00 | 0.00 | 27 | 1010.7 |
| 20260508013050 | 72 | 195 | 0.0 | 3.5 | 0.00 | 0.00 | 0.00 | 25 | 1010.7 |
| 20260508011552 | 74 | 176 | 1.7 | 5.2 | 0.00 | 0.00 | 0.00 | 24 | 1010.7 |
| 20260508010059 | 75 | 165 | 1.7 | 7.0 | 0.00 | 0.00 | 0.00 | 24 | 1010.7 |
| 20260508004547 | 75 | 186 | 4.3 | 8.7 | 0.00 | 0.00 | 0.00 | 23 | 1010.6 |
| 20260508003047 | 75 | 199 | 6.1 | 10.4 | 0.00 | 0.00 | 0.00 | 23 | 1010.7 |
| 20260508001546 | 76 | 211 | 4.3 | 9.6 | 0.00 | 0.00 | 0.00 | 22 | 1010.8 |
| 20260508000047 | 76 | 207 | 3.5 | 9.6 | 0.00 | 0.00 | 0.00 | 22 | 1010.8 |
| 20260507234544 | 76 | 240 | 2.6 | 9.6 | 0.00 | 0.00 | 0.00 | 22 | 1010.8 |
| 20260507233043 | 76 | 217 | 2.6 | 10.4 | 0.00 | 0.00 | 0.00 | 21 | 1011.0 |
| 20260507231540 | 76 | 208 | 3.5 | 10.4 | 0.00 | 0.00 | 0.00 | 22 | 1011.2 |
| 20260507230054 | 76 | 212 | 1.7 | 9.6 | 0.00 | 0.00 | 0.00 | 23 | 1011.4 |
| 20260507224536 | 76 | 214 | 5.2 | 11.3 | 0.00 | 0.00 | 0.00 | 22 | 1011.8 |
| 20260507223105 | 75 | 213 | 4.3 | 13.0 | 0.00 | 0.00 | 0.00 | 23 | 1011.8 |
| 20260507221532 | 75 | 196 | 4.3 | 10.4 | 0.00 | 0.00 | 0.00 | 24 | 1012.0 |
| 20260507220029 | 75 | 80 | 2.6 | 7.8 | 0.00 | 0.00 | 0.00 | 23 | 1012.2 |
| 20260507214525 | 75 | 190 | 3.5 | 8.7 | 0.00 | 0.00 | 0.00 | 24 | 1012.4 |
| 20260507213022 | 75 | 159 | 3.5 | 10.4 | 0.00 | 0.00 | 0.00 | 24 | 1012.9 |
| 20260507211515 | 74 | 182 | 5.2 | 9.6 | 0.00 | 0.00 | 0.00 | 25 | 1013.2 |
| 20260507210014 | 73 | 224 | 2.6 | 9.6 | 0.00 | 0.00 | 0.00 | 26 | 1013.6 |
| 20260507204509 | 72 | 198 | 1.7 | 13.0 | 0.00 | 0.00 | 0.00 | 27 | 1013.9 |
| 20260507203019 | 73 | 248 | 6.1 | 11.3 | 0.00 | 0.00 | 0.00 | 26 | 1014.3 |
| 20260507201503 | 72 | 222 | 6.1 | 8.7 | 0.00 | 0.00 | 0.00 | 28 | 1014.5 |
| 20260507200000 | 71 | 191 | 6.1 | 12.2 | 0.00 | 0.00 | 0.00 | 30 | 1014.8 |
| 20260507194558 | 70 | 236 | 3.5 | 15.6 | 0.00 | 0.00 | 0.00 | 32 | 1015.2 |
| 20260507193055 | 69 | 257 | 5.2 | 10.4 | 0.00 | 0.00 | 0.00 | 32 | 1015.6 |
| 20260507191553 | 69 | 325 | 6.1 | 12.2 | 0.00 | 0.00 | 0.00 | 34 | 1015.8 |
| 20260507190052 | 68 | 274 | 4.3 | 9.6 | 0.00 | 0.00 | 0.00 | 38 | 1016.2 |
| 20260507184544 | 67 | 235 | 3.5 | 11.3 | 0.00 | 0.00 | 0.00 | 40 | 1016.5 |
| 20260507183042 | 66 | 241 | 6.1 | 11.3 | 0.00 | 0.00 | 0.00 | 41 | 1017.0 |
| 20260507181539 | 66 | 252 | 3.5 | 11.3 | 0.00 | 0.00 | 0.00 | 42 | 1017.3 |
| 20260507180036 | 65 | 212 | 4.3 | 10.4 | 0.00 | 0.00 | 0.00 | 45 | 1017.6 |
| 20260507174544 | 64 | 204 | 4.3 | 9.6 | 0.00 | 0.00 | 0.00 | 46 | 1017.9 |
| 20260507173029 | 62 | 245 | 6.1 | 9.6 | 0.00 | 0.00 | 0.00 | 49 | 1018.4 |
| 20260507171525 | 61 | 172 | 4.3 | 11.3 | 0.00 | 0.00 | 0.00 | 51 | 1018.6 |
| 20260507170022 | 60 | 194 | 5.2 | 11.3 | 0.00 | 0.00 | 0.00 | 53 | 1018.9 |
| 20260507164519 | 59 | 197 | 7.0 | 9.6 | 0.00 | 0.00 | 0.00 | 52 | 1019.1 |
| 20260507163016 | 58 | 222 | 5.2 | 10.4 | 0.00 | 0.00 | 0.00 | 55 | 1019.4 |
| 20260507161512 | 57 | 214 | 4.3 | 11.3 | 0.00 | 0.00 | 0.00 | 57 | 1019.4 |
| 20260507160010 | 55 | 229 | 5.2 | 10.4 | 0.00 | 0.00 | 0.00 | 60 | 1019.6 |
| 20260507154507 | 54 | 199 | 4.3 | 9.6 | 0.00 | 0.00 | 0.00 | 63 | 1019.7 |
| 20260507153003 | 52 | 202 | 5.2 | 9.6 | 0.00 | 0.00 | 0.00 | 67 | 1019.9 |
| 20260507151601 | 50 | 239 | 3.5 | 7.8 | 0.00 | 0.00 | 0.00 | 74 | 1020.0 |
| 20260507150056 | 48 | 207 | 3.5 | 8.7 | 0.00 | 0.00 | 0.00 | 80 | 1020.2 |
| 20260507144552 | 46 | 223 | 3.5 | 8.7 | 0.00 | 0.00 | 0.00 | 84 | 1020.3 |
| 20260507143054 | 44 | 198 | 2.6 | 6.1 | 0.00 | 0.00 | 0.00 | 87 | 1020.5 |
| 20260507141549 | 43 | 241 | 3.5 | 7.0 | 0.00 | 0.00 | 0.00 | 91 | 1020.7 |
| 20260507140049 | 41 | 260 | 2.6 | 7.0 | 0.00 | 0.00 | 0.00 | 92 | 1020.8 |
| 20260507134552 | 41 | 214 | 2.6 | 7.8 | 0.00 | 0.00 | 0.00 | 92 | 1020.9 |
| 20260507133051 | 40 | 258 | 1.7 | 6.1 | 0.00 | 0.00 | 0.00 | 93 | 1020.9 |
| 20260507131546 | 40 | 235 | 2.6 | 7.0 | 0.00 | 0.00 | 0.00 | 93 | 1020.9 |
| 20260507130058 | 40 | 240 | 1.7 | 7.0 | 0.00 | 0.00 | 0.00 | 93 | 1020.8 |
| 20260507124602 | 40 | 240 | 0.9 | 4.3 | 0.00 | 0.00 | 0.00 | 93 | 1020.6 |
| 20260507123102 | 40 | 246 | 1.7 | 4.3 | 0.00 | 0.00 | 0.00 | 93 | 1020.4 |
| 20260507121555 | 39 | 248 | 1.7 | 5.2 | 0.00 | 0.00 | 0.00 | 93 | 1020.4 |
| 20260507120042 | 39 | 279 | 0.9 | 4.3 | 0.00 | 0.00 | 0.00 | 93 | 1020.3 |
| 20260507114540 | 39 | 271 | 0.9 | 4.3 | 0.00 | 0.00 | 0.00 | 92 | 1020.1 |
| 20260507113040 | 39 | 285 | 0.9 | 3.5 | 0.00 | 0.00 | 0.00 | 92 | 1020.1 |
| 20260507111537 | 40 | 263 | 0.9 | 3.5 | 0.00 | 0.00 | 0.00 | 92 | 1020.1 |
| 20260507110035 | 40 | 261 | 0.0 | 2.6 | 0.00 | 0.00 | 0.00 | 92 | 1020.2 |
| 20260507104536 | 40 | 291 | 0.0 | 2.6 | 0.00 | 0.00 | 0.00 | 92 | 1020.2 |
| 20260507103033 | 39 | 285 | 0.0 | 1.7 | 0.00 | 0.00 | 0.00 | 91 | 1020.3 |
| 20260507101539 | 39 | 271 | 0.0 | 0.0 | 0.00 | 0.00 | 0.00 | 90 | 1020.4 |
| 20260507100045 | 40 | 271 | 0.0 | 0.0 | 0.00 | 0.00 | 0.00 | 90 | 1020.4 |
| 20260507094531 | 40 | 296 | 0.0 | 0.9 | 0.00 | 0.00 | 0.00 | 90 | 1020.3 |
| 20260507093030 | 40 | 297 | 0.0 | 2.6 | 0.00 | 0.00 | 0.00 | 90 | 1020.4 |
| 20260507091529 | 39 | 58 | 0.0 | 0.0 | 0.00 | 0.00 | 0.00 | 88 | 1020.0 |
| 20260507090024 | 40 | 58 | 0.0 | 0.0 | 0.00 | 0.00 | 0.00 | 87 | 1019.9 |
| 20260507084522 | 40 | 58 | 0.0 | 0.0 | 0.00 | 0.00 | 0.00 | 84 | 1019.9 |
| 20260507083019 | 42 | 58 | 0.0 | 0.0 | 0.00 | 0.00 | 0.00 | 83 | 1019.9 |
| 20260507081517 | 43 | 58 | 0.0 | 0.0 | 0.00 | 0.00 | 0.00 | 83 | 1020.1 |
| 20260507080014 | 43 | 71 | 0.0 | 0.0 | 0.00 | 0.00 | 0.00 | 83 | 1019.9 |
| 20260507074512 | 43 | 69 | 0.9 | 3.5 | 0.00 | 0.00 | 0.00 | 82 | 1020.0 |
| 20260507073009 | 44 | 75 | 0.0 | 0.0 | 0.00 | 0.00 | 0.00 | 81 | 1020.4 |
| 20260507071504 | 44 | 283 | 0.0 | 3.5 | 0.00 | 0.00 | 0.00 | 78 | 1021.1 |
| 20260507070000 | 45 | 347 | 0.9 | 5.2 | 0.00 | 0.00 | 0.00 | 72 | 1021.2 |
| 20260507064559 | 46 | 285 | 0.0 | 4.3 | 0.00 | 0.00 | 0.00 | 69 | 1021.5 |
| 20260507063058 | 46 | 18 | 0.0 | 4.3 | 0.00 | 0.00 | 0.00 | 67 | 1021.2 |
| 20260507061554 | 46 | 345 | 0.9 | 4.3 | 0.00 | 0.00 | 0.00 | 67 | 1021.1 |